This is the latest recevied weather packets stored in our database for station/object LZ1HCO-25. If no packets are shown the sender has not sent any weather packets the latest 10 day(s).
| Time | Temp. | Humidity | Pressure | Rain* | Wind** | Luminosity | Snow |
|---|---|---|---|---|---|---|---|
| 1778080289 | 23.89° C | 52% | 966 hPa | - | - | 0 W/m² | - |
| 1778079978 | 23.89° C | 51% | 966 hPa | - | - | 0 W/m² | - |
| 1778079667 | 24.44° C | 50% | 966 hPa | - | - | 0 W/m² | - |
| 1778079355 | 25° C | 50% | 966 hPa | - | - | 0 W/m² | - |
| 1778079044 | 25° C | 51% | 966 hPa | - | - | 0 W/m² | - |
| 1778078733 | 25° C | 51% | 966 hPa | - | - | 0 W/m² | - |
| 1778078421 | 25° C | 51% | 966 hPa | - | - | 0 W/m² | - |
| 1778078110 | 25.56° C | 50% | 966 hPa | - | - | 0 W/m² | - |
| 1778077799 | 25.56° C | 51% | 966 hPa | - | - | 0 W/m² | - |
| 1778077487 | 26.11° C | 53% | 966 hPa | - | - | 0 W/m² | - |
| 1778077176 | 25° C | 52% | 966 hPa | - | - | 0 W/m² | - |
| 1778076865 | 23.89° C | 55% | 966 hPa | - | - | 0 W/m² | - |
| 1778076553 | 23.89° C | 54% | 966 hPa | - | - | 0 W/m² | - |
| 1778076242 | 23.89° C | 53% | 966 hPa | - | - | 0 W/m² | - |
| 1778075930 | 23.89° C | 54% | 966 hPa | - | - | 0 W/m² | - |
| 1778075619 | 24.44° C | 55% | 966 hPa | - | - | 0 W/m² | - |
| 1778075308 | 24.44° C | 54% | 966 hPa | - | - | 0 W/m² | - |
| 1778074996 | 24.44° C | 51% | 966 hPa | - | - | 0 W/m² | - |
| 1778074685 | 24.44° C | 55% | 966 hPa | - | - | 0 W/m² | - |
| 1778074373 | 24.44° C | 52% | 966 hPa | - | - | 0 W/m² | - |
| 1778074062 | 25.56° C | 53% | 966 hPa | - | - | 0 W/m² | - |
| 1778073751 | 26.11° C | 53% | 966 hPa | - | - | 0 W/m² | - |
| 1778073439 | 25° C | 50% | 966 hPa | - | - | 0 W/m² | - |
| 1778073298 | 25.56° C | 51% | 966 hPa | - | - | 0 W/m² | - |
| 1778072987 | 25° C | 51% | 966 hPa | - | - | 0 W/m² | - |
* Rain since midnight (hover to see other rain measurements)
** Current wind speed in m/s (hover to see current wind gust speed)